{"data":{"norad_id":62587,"intl_designator":"2025-008A","name":"STARLINK-11547 [DTC]","alt_names":[],"object_type":"PAYLOAD","status":"ACTIVE","operator":null,"country":"US","launch_date":"2025-01-13","launch_site_code":"AFETR","launch_vehicle":null,"mission":null,"orbit_class":"UNKNOWN","rcs_meters":null,"size_class":null,"mass_kg":null,"dimensions":null,"purposes":["comms"],"wikipedia_slug":null,"has_3d_model":false,"image_url":null,"decayed_at":null,"tle_current":{"epoch":"2026-09-21T15:56:17.328480Z","epoch_age_seconds":70732,"freshness":"FRESH","line1":"1 62587U 25008A   26264.66408945  .00128186  00000+0  98651-3 0  9992","line2":"2 62587  43.0025  25.1022 0002585 276.7253  83.3320 15.70853552 96935","mean_motion":15.70853552,"eccentricity":0.0002585,"inclination_deg":43.0025,"raan_deg":25.1022,"arg_perigee_deg":276.7253,"mean_anomaly_deg":83.332,"bstar":0.00098651,"rev_number":9693,"period_min":91.669907622299,"perigee_km":354.71543531953,"apogee_km":358.19722006994,"semimajor_km":6734.5933276947,"source":"CELESTRAK","updated_at":"2026-09-22T09:00:49.630432Z"}}}